Regional Weather Roundup
Issued by NWS

Home | Current Version | Previous Version | Text Only | Print | Product List | Glossary On
Versions: 1 2 3 4 5 6 7 8 9 10 11 12 13 14 15 16 17 18 19 20 21 22 23 24 25 26 27 28 29 30 31 32 33 34 35 36 37 38 39 40 41 42 43 44 45 46 47 48 49 50
000
ASUS42 KKEY 010210
RWRKEY

FLORIDA REGIONAL WEATHER ROUNDUP FOR THE FLORIDA KEYS
NATIONAL WEATHER SERVICE KEY WEST FLORIDA
1000 PM EDT SAT APR 30 2016

...SOUTH FLORIDA AND THE KEYS...

CITY           SKY/WX    TMP DP  RH WIND       PRES   REMARKS
FORT MYERS     PTCLDY    76  62  62 E8        29.97R
SW REGIONAL AP PTCLDY    75  63  66 E9        29.98R
NAPLES         PTCLDY    78  64  61 E8        29.96R
MIAMI          CLOUDY    78  68  71 E17       29.97F
WEST KENDALL   PTCLDY    76  68  76 E13       29.97F
HOMESTEAD      CLOUDY    77  69  75 E14       29.97F
MARATHON       MOCLDY    79  69  71 E7        29.96R
BOCA CHICA NAS PTCLDY    78  65  63 E18       29.94R
KEY WEST INTL  PTCLDY    78  67  68 E20G26    29.95R

...INTERNATIONAL WEATHER...

CITY           SKY/WX    TMP DP  RH WIND       PRES   REMARKS
NASSAU BAHAMAS MOCLDY    77  72  83 MISG      30.01R
CANCUN MEXICO  PTCLDY    82  77  83 E12       29.83R HX  91
COZUMEL MEXICO MOCLDY    77  75  94 SE13      29.82R

ADJACENT COASTAL WATERS...

STATION/POSITION TIME  SKY/WX   TEMP    WIND        PRES    WAVE
                                AIR SEA DIR/SP/G            HT/PER
                 (UTC)          (F)     (DEG/KT/KT) (MB)    (FT/S)
PULASKI SHOAL LI 0200            78     100/ 18/ 19 1013.8R
SAND KEY         0150            78     120/ 23/ 27 1014.0R
SOMBRERO KEY     NOT AVBL
LONG KEY         0200            79 81  100/ 14/ 16 1015.0R
MOLASSES REEF    NOT AVBL
FOWEY ROCKS      NOT AVBL

$$



USA.gov is the U.S. government's official web portal to all federal, state and local government web resources and services.